[Date Prev][Date Next][Thread Prev][Thread Next] - [Date Index][Thread Index][Author Index]

2 Line ISS Keps 7-28



 ISS
1 25544U 98067A   05209.00025002  .00009649  00000-0  76791-4 0    99
2 25544 051.6446 051.8986 0002923 162.9263 000.4239 15.71979060382107
----
Via the sarex mailing list at AMSAT.ORG courtesy of AMSAT-NA.
To unsubscribe, send "unsubscribe sarex" to Majordomo@amsat.org



AMSAT Top AMSAT Home